Nenana, AK

8:13 PM AKDT on July 20, 2017 (GMT -0800)
Nenana Municipal

Weather History for PANN - August, 2013

Change the Weather History Date:

Tuesday, August 6, 2013

  Actual Average Record
Temperature  
Mean Temperature 68 °F -  
Max Temperature 81 °F 69 °F 81 °F (2013)
Min Temperature 57 °F 48 °F 39 °F (2008)
Cooling Degree Days 4    
Growing Degree Days 18 (Base 50)    
Moisture  
Dew Point 47 °F    
Average Humidity 56    
Maximum Humidity 91    
Minimum Humidity 25    
Precipitation  
Precipitation 0.00 in - - ()
Sea Level Pressure  
Sea Level Pressure 29.88 in    
Wind  
Wind Speed 5 mph (East)    
Max Wind Speed 12 mph    
Max Gust Speed 18 mph    
Visibility 10 miles    
Events      
Averages and records for this station are not official NWS values.
T = Trace of Precipitation, MM = Missing Value Source: NWS Daily Summary

Daily Weather History Graph

Daily Weather History Graph

Search for Another Location

Airport or City:

Trip Planner

Search our weather history database for the weather conditions in past years. The results will help you decide how hot, cold, wet, or windy it might be!

Date:

Astronomy

Aug. 06, 2013 Rise Set
Actual Time 5:16 AM AKDT 10:44 PM AKDT
Civil Twilight 3:56 AM AKDT 12:03 AM AKDT
Nautical Twilight Sun does not set Sun does not set
Astronomical Twilight Sun does not set Sun does not set
Moon 5:47 AM AKDT (8/6) 9:41 PM AKDT (8/6)
Length of Visible Light 20h 07m
Length of Day
17h 27m
Waning Crescent, 0% of the Moon is Illuminated
Aug 6
Waning Crescent
Aug 6
New
Aug 14
First Quarter
Aug 20
Full
Aug 28
Last Quarter

Hourly Weather History & Observations

Time (AKDT) Temp. Dew Point Humidity Pressure Visibility Wind Dir Wind Speed Gust Speed Precip Events Conditions
12:53 AM 57.9 °F 46.9 °F 67% 29.88 in 10.0 mi East 3.5 mph - N/A   Clear
1:53 AM 55.9 °F 48.0 °F 75% 29.90 in 10.0 mi ENE 3.5 mph - N/A   Clear
2:53 AM 54.0 °F 48.0 °F 80% 29.90 in 10.0 mi Calm Calm - N/A   Clear
3:53 AM 52.0 °F 46.0 °F 80% 29.91 in 10.0 mi East 4.6 mph - N/A   Clear
4:53 AM 57.0 °F 44.1 °F 62% 29.92 in 10.0 mi Calm Calm - N/A   Overcast
5:53 AM 55.0 °F 44.1 °F 67% 29.91 in 10.0 mi ENE 6.9 mph - N/A   Mostly Cloudy
6:53 AM 55.9 °F 45.0 °F 67% 29.91 in 10.0 mi East 5.8 mph - N/A   Clear
7:53 AM 57.9 °F 46.0 °F 65% 29.92 in 10.0 mi East 8.1 mph - N/A   Clear
8:53 AM 59.0 °F 46.9 °F 64% 29.92 in 10.0 mi East 8.1 mph - N/A   Clear
9:53 AM 64.9 °F 48.0 °F 54% 29.91 in 10.0 mi East 8.1 mph - N/A   Clear
10:53 AM 66.0 °F 48.9 °F 54% 29.90 in 10.0 mi ENE 8.1 mph - N/A   Clear
11:53 AM 70.0 °F 46.9 °F 44% 29.88 in 10.0 mi ENE 9.2 mph - N/A   Clear
12:53 PM 71.1 °F 46.9 °F 42% 29.87 in 10.0 mi East 11.5 mph - N/A   Clear
1:53 PM 73.9 °F 46.9 °F 38% 29.86 in 10.0 mi ENE 8.1 mph - N/A   Clear
2:53 PM 77.0 °F 46.9 °F 34% 29.84 in 10.0 mi ENE 6.9 mph - N/A   Clear
3:53 PM 78.1 °F 46.0 °F 32% 29.82 in 10.0 mi Variable 5.8 mph - N/A   Clear
4:53 PM 78.1 °F 43.0 °F 29% 29.80 in 10.0 mi East 9.2 mph 17.3 mph N/A   Clear
5:53 PM 80.1 °F 41.0 °F 25% 29.79 in 10.0 mi SSE 10.4 mph - N/A   Clear
6:53 PM 80.1 °F 41.0 °F 25% 29.78 in 10.0 mi South 9.2 mph 18.4 mph N/A   Clear
7:53 PM 78.1 °F 42.1 °F 28% 29.79 in 10.0 mi South 11.5 mph 17.3 mph N/A   Clear
8:53 PM 72.0 °F 45.0 °F 38% 29.79 in 10.0 mi Calm Calm - N/A   Clear
9:53 PM 68.0 °F 48.0 °F 49% 29.79 in 10.0 mi Calm Calm - N/A   Clear
10:53 PM 63.0 °F 48.9 °F 60% 29.79 in 10.0 mi Calm Calm - N/A   Clear
11:53 PM 59.0 °F 48.0 °F 67% 29.79 in 10.0 mi Calm Calm - N/A   Clear